TimeEST,TemperatureF,Dew PointF,Humidity,Sea Level PressureIn,VisibilityMPH,Wind Direction,Wind SpeedMPH,Gust SpeedMPH,PrecipitationIn,Events,Conditions,WindDirDegrees,DateUTC
12:14 AM,33.8,32.0,93,29.86,1.8,North,-9999.0,-,0.00,,Mostly Cloudy,0,2012-01-24 05:14:00
12:29 AM,33.8,32.0,93,29.86,1.0,North,-9999.0,-,0.00,,Mist,0,2012-01-24 05:29:00
12:38 AM,33.8,32.0,93,29.86,0.8,North,-9999.0,-,0.00,,Mist,0,2012-01-24 05:38:00
12:51 AM,32.9,32.0,96,29.87,0.5,North,-9999.0,-,0.01,Fog,Fog,0,2012-01-24 05:51:00
1:07 AM,33.8,32.0,93,29.85,0.8,North,-9999.0,-,N/A,,Clear,0,2012-01-24 06:07:00
1:28 AM,33.8,32.0,93,29.85,0.5,North,-9999.0,-,N/A,Fog,Fog,0,2012-01-24 06:28:00
1:51 AM,32.9,32.0,96,29.87,1.0,North,-9999.0,-,N/A,,Clear,0,2012-01-24 06:51:00
1:58 AM,33.8,32.0,93,29.85,1.2,North,-9999.0,-,N/A,,Clear,0,2012-01-24 06:58:00
2:03 AM,33.8,32.0,93,29.85,1.0,North,-9999.0,-,N/A,,Mist,0,2012-01-24 07:03:00
2:26 AM,33.8,32.0,93,29.85,0.8,North,-9999.0,-,N/A,,Mist,0,2012-01-24 07:26:00
2:33 AM,33.8,32.0,93,29.84,0.5,North,-9999.0,-,N/A,Fog,Fog,0,2012-01-24 07:33:00
2:51 AM,32.9,32.0,96,29.87,0.5,North,-9999.0,-,0.01,Fog,Fog,0,2012-01-24 07:51:00
3:41 AM,33.8,32.0,93,29.84,0.8,North,-9999.0,-,N/A,,Clear,0,2012-01-24 08:41:00
3:55 AM,33.8,32.0,93,29.85,1.5,North,-9999.0,-,N/A,,Mostly Cloudy,0,2012-01-24 08:55:00
4:02 AM,33.8,32.0,93,29.85,1.2,North,-9999.0,-,N/A,,Mostly Cloudy,0,2012-01-24 09:02:00
4:11 AM,33.8,33.8,100,29.85,2.0,North,-9999.0,-,0.01,,Mostly Cloudy,0,2012-01-24 09:11:00
4:16 AM,33.8,33.8,100,29.86,3.0,North,-9999.0,-,0.01,,Mostly Cloudy,0,2012-01-24 09:16:00
4:51 AM,32.9,32.0,96,29.87,3.0,North,-9999.0,-,0.01,,Overcast,0,2012-01-24 09:51:00
5:15 AM,33.8,32.0,93,29.84,2.5,North,-9999.0,-,N/A,,Mostly Cloudy,0,2012-01-24 10:15:00
5:28 AM,33.8,33.8,100,29.85,3.0,North,-9999.0,-,N/A,,Mostly Cloudy,0,2012-01-24 10:28:00
5:51 AM,34.0,32.9,96,29.88,4.0,North,-9999.0,-,0.01,,Overcast,0,2012-01-24 10:51:00
6:08 AM,33.8,33.8,100,29.86,3.0,North,-9999.0,-,N/A,,Overcast,0,2012-01-24 11:08:00
7:51 AM,34.0,32.9,96,29.90,7.0,Calm,Calm,-,0.01,,Mostly Cloudy,0,2012-01-24 12:51:00
8:51 AM,34.9,32.9,92,29.91,10.0,Calm,Calm,-,N/A,,Scattered Clouds,0,2012-01-24 13:51:00
9:51 AM,43.0,39.9,89,29.93,9.0,Calm,Calm,-,0.01,,Scattered Clouds,0,2012-01-24 14:51:00
10:51 AM,50.0,39.9,68,29.93,-9999.0,Calm,Calm,-,N/A,,Scattered Clouds,0,2012-01-24 15:51:00
11:02 AM,50.0,39.2,66,29.92,-9999.0,North,-9999.0,-,N/A,,Mostly Cloudy,0,2012-01-24 16:02:00
11:32 AM,50.0,37.4,62,29.91,-9999.0,North,-9999.0,-,N/A,,Mostly Cloudy,0,2012-01-24 16:32:00
11:51 AM,50.9,37.9,61,29.92,10.0,North,-9999.0,-,N/A,,Scattered Clouds,0,2012-01-24 16:51:00
12:51 PM,50.9,36.9,59,29.90,10.0,Variable,6.9,-,N/A,,Clear,0,2012-01-24 17:51:00
1:51 PM,52.9,36.9,55,29.90,10.0,Variable,5.8,-,N/A,,Clear,0,2012-01-24 18:51:00
2:51 PM,50.9,36.0,57,29.91,10.0,NNW,15.0,34.5,N/A,,Clear,330,2012-01-24 19:51:00
3:51 PM,48.9,32.9,54,29.94,10.0,NW,9.2,23.0,N/A,,Overcast,310,2012-01-24 20:51:00
4:51 PM,45.0,32.0,60,29.98,10.0,NNW,9.2,-,N/A,,Overcast,340,2012-01-24 21:51:00
5:51 PM,43.0,31.1,63,29.99,10.0,NW,4.6,-,N/A,,Overcast,310,2012-01-24 22:51:00
6:51 PM,41.9,31.1,66,30.00,10.0,West,5.8,-,N/A,,Overcast,270,2012-01-24 23:51:00
7:51 PM,41.9,30.0,63,30.01,10.0,West,4.6,-,N/A,,Overcast,260,2012-01-25 00:51:00
8:51 PM,41.9,30.0,63,30.02,10.0,WNW,9.2,24.2,N/A,,Overcast,290,2012-01-25 01:51:00
9:51 PM,41.0,29.1,63,30.04,10.0,West,5.8,-,N/A,,Overcast,280,2012-01-25 02:51:00
10:26 PM,41.0,28.4,61,30.03,10.0,NW,17.3,39.1,N/A,,Overcast,310,2012-01-25 03:26:00
10:51 PM,39.9,26.1,58,30.05,10.0,WNW,9.2,-,N/A,,Overcast,290,2012-01-25 03:51:00
11:51 PM,38.8,25.2,58,30.05,10.0,West,5.8,-,N/A,,Mostly Cloudy,280,2012-01-25 04:51:00